Weather observations for the past three days for
Oklahoma City, Wiley Post Airport
Imperial (Metric)
Date Time (cdt) Wind (mph) Vis. (mi.) Weather Sky Cond. Temperature (ºF) Relative Humidity Wind Chill (°F) Heat Index (°F) Pressure Precipitation (in)
Air Dwpt 6 hour altimeter (in) sea level (mb) 1 hr 3 hr 6 hr
Max. Min.
03 00:53 S 13 10.00 Fair CLR 84.9 66.9 97 84.9 55% 88 29.93 1011.3
02 23:53 S 15 G 23 10.00 Fair CLR 87.1 64.9 48% 89 29.92 1011.2
02 22:53 S 15 10.00 Fair CLR 89.1 64.9 45% 91 29.92 1011.1
02 21:53 SE 14 G 23 10.00 Fair CLR 91 63 39% 92 29.92 1011.1
02 20:53 SE 13 10.00 Fair CLR 93 63 37% 94 29.9 1010.7
02 19:53 S 10 10.00 Fair CLR 93.9 62.1 35% 95 29.89 1010.0
02 18:53 SE 14 10.00 Fair CLR 97 62.1 100.9 97 32% 98 29.88 1009.9
02 17:53 SE 13 10.00 Fair CLR 99 60.1 28% 99 29.89 1010.0
02 16:53 SE 14 G 20 10.00 Fair CLR 99 63 31% 101 29.9 1010.3
02 15:53 S 10 G 21 10.00 Fair CLR 99 62.1 30% 100 29.92 1010.9
02 14:53 SE 8 G 20 10.00 Fair CLR 98.1 64 33% 101 29.94 1011.7
02 13:53 SE 14 G 23 10.00 Fair CLR 97 64.9 35% 100 29.96 1012.6
02 12:53 S 9 10.00 Fair CLR 98.1 64.9 98.1 78.1 34% 101 29.99 1013.6
02 10:53 S 14 10.00 Fair CLR 91.9 66 43% 95 30.02 1014.7
02 09:53 S 16 10.00 Fair CLR 89.1 66.9 48% 92 30.03 1014.8
02 08:53 S 10 G 21 10.00 Fair CLR 82.9 66.9 59% 86 30.03 1014.8
02 07:53 S 13 10.00 Fair CLR 79 66.9 67% 81 30.02 1014.7
02 06:53 S 12 10.00 Fair CLR 78.1 66 84 78.1 67% 80 30 1014.0
02 05:53 S 10 10.00 Fair CLR 79 66 65% 81 29.99 1013.6
02 04:53 S 13 10.00 Fair CLR 80.1 64.9 60% 82 29.99 1013.4
02 03:53 S 14 10.00 Fair CLR 81 64 57% 83 29.98 1013.2
02 02:53 S 12 10.00 Fair CLR 82 63 53% 83 29.98 1013.2
02 01:53 S 10 10.00 Fair CLR 82.9 63 51% 84 29.98 1013.3
02 00:53 S 10 10.00 Fair CLR 84 63 97 84 49% 85 29.98 1013.3
01 23:53 S 13 10.00 Fair CLR 87.1 62.1 43% 88 29.98 1013.0
01 22:53 S 12 10.00 Fair CLR 88 61 40% 88 29.98 1013.2
01 21:53 S 9 10.00 Fair CLR 90 61 38% 90 29.96 1012.6
01 20:53 S 9 10.00 Fair CLR 91 61 37% 91 29.94 1011.8
01 19:53 S 10 10.00 Fair CLR 93 59 32% 92 29.93 1011.5
01 18:53 S 10 10.00 Fair CLR 97 57.9 100.9 95 27% 96 29.93 1011.5
01 17:53 S 10 10.00 A Few Clouds FEW100 99 57.9 26% 98 29.94 1011.8
01 16:53 S 8 10.00 A Few Clouds FEW095 100 55.9 23% 99 29.94 1011.8
01 15:53 S 14 G 20 10.00 A Few Clouds FEW095 100 57 24% 99 29.96 1012.4
01 14:53 S 9 10.00 Partly Cloudy SCT100 100 57 24% 99 29.98 1013.4
01 13:53 S 8 G 23 10.00 Partly Cloudy SCT095 98.1 57 25% 97 30 1014.0
01 12:53 S 13 G 20 10.00 Partly Cloudy SCT085 98.1 57.9 99 75.9 26% 97 30.03 1014.8
01 11:53 SW 13 10.00 Fair CLR 96.1 60.1 30% 96 30.05 1015.4
01 10:53 SW 13 10.00 Fair CLR 91.9 61 36% 92 30.05 1015.6
01 09:53 S 12 10.00 Fair CLR 88 61 40% 88 30.05 1015.7
01 08:53 SW 9 10.00 Fair CLR 82.9 62.1 49% 84 30.06 1016.0
01 07:53 S 7 10.00 Fair CLR 78.1 61 56% 80 30.04 1015.4
01 06:53 S 9 10.00 Fair CLR 77 61 82 75.9 58% 79 30.02 1014.8
01 05:53 S 12 10.00 Fair CLR 78.1 60.1 54% 79 30.02 1014.5
01 03:53 S 10 10.00 Fair CLR 79 57.9 49% 80 30 1014.0
01 02:53 S 9 10.00 Fair CLR 75.9 57.9 54% 78 30 1013.8
01 01:53 S 7 10.00 Fair CLR 77 57.9 52% 79 30 1014.0
01 00:53 S 9 10.00 Fair CLR 82 57 97 82 43% 82 30 1013.9
31 23:53 S 10 10.00 Fair CLR 84 57 40% 83 29.99 1013.6
31 22:53 S 14 10.00 Fair CLR 88 57 35% 87 29.99 1013.5
31 21:53 S 14 10.00 Fair CLR 90 55.9 32% 88 29.98 1013.1
31 20:53 SE 10 10.00 Fair CLR 91.9 55 29% 90 29.95 1012.2
31 19:53 S 12 10.00 Fair CLR 93.9 54 26% 92 29.93 1011.7
31 18:53 S 14 10.00 Fair CLR 97 55.9 102 97 25% 95 29.93 1011.6
31 17:53 S 13 G 23 10.00 Fair CLR 99 57 25% 98 29.93 1011.6
31 16:53 SE 14 G 25 10.00 Partly Cloudy SCT095 100 57.9 25% 100 29.94 1011.7
31 15:53 S 16 10.00 Partly Cloudy SCT095 100.9 57.9 24% 101 29.95 1012.2
31 14:53 S 17 G 26 10.00 Partly Cloudy SCT085 100.9 59 25% 101 29.97 1012.8
31 13:53 S 7 G 22 10.00 A Few Clouds FEW085 98.1 59 27% 98 29.99 1013.4
31 12:53 S 15 G 20 10.00 Fair CLR 99 61 100 77 29% 100 30.01 1014.0
31 11:53 S 14 10.00 Fair CLR 97 64 34% 99 30.03 1014.6
31 10:53 SW 15 10.00 Fair CLR 93.9 64.9 38% 96 30.03 1014.8
31 09:53 S 14 10.00 Fair CLR 90 64.9 44% 92 30.03 1014.9
31 08:53 S 13 10.00 Fair CLR 84.9 63 48% 86 30.03 1014.9
31 07:53 S 10 10.00 Fair CLR 80.1 61 52% 81 30.01 1014.4
31 06:53 S 9 10.00 Fair CLR 78.1 60.1 84.9 78.1 54% 79 29.99 1013.5
31 05:53 S 12 10.00 Fair CLR 79 59 50% 80 29.97 1012.7
31 04:53 S 9 10.00 Fair CLR 80.1 59 49% 81 29.96 1012.5
31 03:53 S 13 10.00 Fair CLR 82 59 46% 82 29.95 1012.1
31 02:53 S 12 10.00 Fair CLR 82 59 46% 82 29.95 1012.1
31 01:53 S 14 10.00 Fair CLR 84 59 43% 84 29.95 1012.0
Date Time (cdt) Wind (mph) Vis. (mi.) Weather Sky Cond. Air Dwpt Max. Min. Relative Humidity Wind Chill (°F) Heat Index (°F) altimeter (in) sea level (mb) 1 hr 3 hr 6 hr
6 hour
Temperature (ºF) Pressure Precipitation (in)